Mountain Home, ID

1:56 PM MST on December 12, 2017 (GMT -0700)
Mountain Home Air Force Base

Weather History for KMUO - December, 2012

Change the Weather History Date:

Saturday, December 8, 2012

  Actual Average Record
Temperature  
Mean Temperature 35 °F 31 °F  
Max Temperature 40 °F 38 °F 60 °F (1981)
Min Temperature 29 °F 22 °F -6 °F (2013)
Degree Days  
Heating Degree Days 30 34  
Month to date heating degree days 170 267  
Cooling Degree Days 0 0  
Month to date cooling degree days 0 0  
Moisture  
Dew Point 30 °F    
Average Humidity 93    
Maximum Humidity 100    
Minimum Humidity 56    
Precipitation  
Precipitation T in 0.06 in 1.05 in (2004)
Month to date precipitation 0.20 0.48  
Sea Level Pressure  
Sea Level Pressure 30.11 in    
Wind  
Wind Speed 14 mph (NW)    
Max Wind Speed 28 mph    
Max Gust Speed 39 mph    
Visibility 8 miles    
Events Rain , Snow    
T = Trace of Precipitation, MM = Missing Value Source: NWS Daily Summary

Daily Weather History Graph

Daily Weather History Graph

Search for Another Location

Airport or City:

Trip Planner

Search our weather history database for the weather conditions in past years. The results will help you decide how hot, cold, wet, or windy it might be!

Date:

Astronomy

Dec. 08, 2012 Rise Set
Actual Time 8:02 AM MST 5:08 PM MST
Civil Twilight 7:30 AM MST 5:40 PM MST
Nautical Twilight 6:54 AM MST 6:16 PM MST
Astronomical Twilight 6:20 AM MST 6:50 PM MST
Moon 2:25 AM MST (12/8) 1:46 PM MST (12/8)
Length of Visible Light 10h 10m
Length of Day
9h 05m
Waning Crescent, 27% of the Moon is Illuminated
Dec 8
Waning Crescent
Dec 13
New
Dec 19
First Quarter
Dec 28
Full
Jan 4
Last Quarter

Hourly Weather History & Observations

Time (MST) Temp. Windchill Dew Point Humidity Pressure Visibility Wind Dir Wind Speed Gust Speed Precip Events Conditions
12:58 AM 39.6 °F 31.3 °F 26.1 °F 58% 29.98 in 10.0 mi West 15.0 mph - N/A   Overcast
1:58 AM 39.2 °F 33.0 °F 26.1 °F 59% 29.99 in 10.0 mi West 9.2 mph - N/A   Overcast
2:41 AM 39.2 °F 30.5 °F 24.8 °F 56% 29.96 in 10.0 mi NNW 16.1 mph - N/A   Overcast
2:51 AM 37.4 °F 26.9 °F 35.6 °F 93% 29.97 in 10.0 mi NNW 20.7 mph 26.5 mph N/A   Overcast
2:58 AM 36.9 °F 25.9 °F 36.9 °F 100% 29.99 in 10.0 mi NNW 21.9 mph 27.6 mph N/A   Overcast
3:58 AM 33.8 °F 20.5 °F 33.8 °F 100% 30.04 in 10.0 mi NNW 27.6 mph 39.1 mph 0.00 in Rain Light Rain
4:03 AM 32.0 °F 18.4 °F 32.0 °F 100% 29.99 in 8.0 mi NNW 26.5 mph 35.7 mph N/A Snow Light Snow
4:13 AM 32.0 °F 18.4 °F 32.0 °F 100% 29.99 in 10.0 mi NNW 26.5 mph 29.9 mph N/A Rain Light Rain
4:18 AM 32.0 °F 18.9 °F 32.0 °F 100% 29.99 in 9.0 mi NNW 24.2 mph 34.5 mph N/A Rain Light Rain
4:23 AM 32.0 °F 18.9 °F 32.0 °F 100% 30.00 in 6.0 mi NNW 24.2 mph 34.5 mph N/A Snow Light Snow
4:28 AM 32.0 °F 18.4 °F 32.0 °F 100% 30.00 in 2.0 mi NNW 26.5 mph 32.2 mph N/A Snow Light Snow
4:33 AM 32.0 °F 18.9 °F 32.0 °F 100% 30.01 in 1.0 mi NNW 24.2 mph 32.2 mph N/A Snow Light Snow
4:38 AM 32.0 °F 19.5 °F 32.0 °F 100% 30.01 in 0.8 mi NNW 21.9 mph 32.2 mph N/A Snow Light Snow
4:43 AM 32.0 °F 19.5 °F 32.0 °F 100% 30.00 in 1.0 mi NNW 21.9 mph - N/A Snow Light Snow
4:48 AM 32.0 °F 20.5 °F 32.0 °F 100% 30.01 in 1.5 mi NNW 18.4 mph - N/A Snow Light Snow
4:53 AM 32.0 °F 20.1 °F 32.0 °F 100% 30.01 in 2.5 mi NW 19.6 mph - N/A Snow Light Snow
4:58 AM 30.9 °F 19.4 °F 30.9 °F 100% 30.06 in 2.5 mi NW 17.3 mph - N/A Snow Light Snow
5:08 AM 32.0 °F 22.1 °F 32.0 °F 100% 30.01 in 4.0 mi WNW 13.8 mph - N/A Snow Light Snow
5:13 AM 32.0 °F 21.6 °F 32.0 °F 100% 30.01 in 8.0 mi NW 15.0 mph - N/A Snow Light Snow
5:18 AM 32.0 °F 21.2 °F 32.0 °F 100% 30.01 in 10.0 mi NW 16.1 mph - N/A   Overcast
5:48 AM 32.0 °F 21.6 °F 32.0 °F 100% 30.02 in 10.0 mi WNW 15.0 mph - N/A   Overcast
5:58 AM 31.6 °F 22.1 °F 31.6 °F 100% 30.07 in 10.0 mi WNW 12.7 mph - 0.00 in   Overcast
6:13 AM 32.0 °F 23.6 °F 32.0 °F 100% 30.03 in 10.0 mi WNW 10.4 mph - N/A   Overcast
6:58 AM 30.6 °F 21.2 °F 30.6 °F 100% 30.10 in 10.0 mi NW 11.5 mph - N/A   Overcast
7:58 AM 29.5 °F 20.4 °F 29.5 °F 100% 30.12 in 10.0 mi WNW 10.4 mph - N/A   Mostly Cloudy
8:58 AM 30.0 °F 21.1 °F 28.2 °F 93% 30.15 in 10.0 mi West 10.4 mph - N/A   Mostly Cloudy
9:58 AM 30.4 °F 23.6 °F 27.7 °F 90% 30.17 in 10.0 mi WSW 6.9 mph - N/A   Clear
10:58 AM 31.8 °F 22.8 °F 25.2 °F 76% 30.19 in 10.0 mi West 11.5 mph - N/A   Partly Cloudy
11:58 AM 32.2 °F 25.0 °F 26.4 °F 79% 30.17 in 10.0 mi WNW 8.1 mph - N/A   Clear
12:58 PM 34.2 °F 25.2 °F 24.1 °F 67% 30.15 in 10.0 mi NW 12.7 mph - N/A   Overcast
1:58 PM 34.9 °F 25.7 °F 24.4 °F 66% 30.15 in 10.0 mi NNW 13.8 mph - N/A   Overcast
2:58 PM 35.1 °F 27.9 °F 22.3 °F 60% 30.15 in 10.0 mi NNW 9.2 mph - N/A   Overcast
3:48 PM 33.8 °F 27.7 °F 23.0 °F 65% 30.11 in 10.0 mi WNW 6.9 mph - N/A   Overcast
3:58 PM 34.5 °F 27.9 °F 23.9 °F 65% 30.17 in 10.0 mi NW 8.1 mph - N/A   Overcast
4:53 PM 32.0 °F 26.4 °F 24.8 °F 75% 30.12 in 10.0 mi WSW 5.8 mph - N/A   Overcast
4:58 PM 32.7 °F 25.7 °F 25.5 °F 75% 30.19 in 10.0 mi West 8.1 mph - N/A   Overcast
5:58 PM 30.2 °F 24.3 °F 25.3 °F 82% 30.19 in 10.0 mi West 5.8 mph - N/A   Overcast
6:58 PM 32.0 °F 24.2 °F 27.0 °F 82% 30.21 in 10.0 mi North 9.2 mph - N/A   Overcast
7:58 PM 32.0 °F 24.8 °F 31.5 °F 98% 30.22 in 10.0 mi NNW 8.1 mph - 0.00 in   Overcast
8:23 PM 32.0 °F 26.4 °F 32.0 °F 100% 30.15 in 7.0 mi NW 5.8 mph - N/A Snow Light Snow
8:28 PM 32.0 °F 26.4 °F 32.0 °F 100% 30.16 in 4.0 mi NW 5.8 mph - N/A Snow Light Snow
8:38 PM 32.0 °F 25.6 °F 32.0 °F 100% 30.16 in 5.0 mi NW 6.9 mph - N/A Snow Light Snow
8:53 PM 32.0 °F 27.5 °F 32.0 °F 100% 30.16 in 10.0 mi WNW 4.6 mph - N/A Snow Light Snow
8:58 PM 30.7 °F 26.0 °F 30.7 °F 100% 30.23 in 10.0 mi WNW 4.6 mph - 0.00 in Snow Light Snow
9:08 PM 32.0 °F 26.4 °F 32.0 °F 100% 30.16 in 10.0 mi NW 5.8 mph - N/A   Overcast
9:28 PM 32.0 °F 24.8 °F 32.0 °F 100% 30.17 in 8.0 mi NW 8.1 mph - N/A Snow Light Snow
9:33 PM 32.0 °F 24.8 °F 32.0 °F 100% 30.17 in 7.0 mi NW 8.1 mph - N/A Snow Light Snow
9:38 PM 32.0 °F 24.8 °F 32.0 °F 100% 30.17 in 8.0 mi NW 8.1 mph - N/A Snow Light Snow
9:48 PM 32.0 °F 26.4 °F 32.0 °F 100% 30.17 in 9.0 mi NW 5.8 mph - N/A Snow Light Snow
9:58 PM 30.9 °F 27.5 °F 30.9 °F 100% 30.24 in 10.0 mi West 3.5 mph - 0.00 in Snow Light Snow
10:03 PM 32.0 °F 27.5 °F 32.0 °F 100% 30.17 in 10.0 mi West 4.6 mph - N/A   Overcast
10:13 PM 32.0 °F 26.4 °F 32.0 °F 100% 30.18 in 7.0 mi WNW 5.8 mph - N/A Snow Light Snow
10:18 PM 32.0 °F 25.6 °F 32.0 °F 100% 30.18 in 6.0 mi WNW 6.9 mph - N/A Snow Light Snow
10:23 PM 32.0 °F 26.4 °F 32.0 °F 100% 30.17 in 7.0 mi WNW 5.8 mph - N/A Snow Light Snow
10:28 PM 32.0 °F 27.5 °F 32.0 °F 100% 30.17 in 10.0 mi WNW 4.6 mph - N/A Snow Light Snow
10:48 PM 30.2 °F 26.7 °F 30.2 °F 100% 30.18 in 10.0 mi NW 3.5 mph - N/A   Overcast
10:58 PM 30.2 °F - 30.2 °F 100% 30.24 in 10.0 mi NW 1.2 mph - N/A   Overcast
11:08 PM 30.2 °F - 30.2 °F 100% 30.17 in 10.0 mi Calm Calm - N/A   Overcast
11:13 PM 30.2 °F - 30.2 °F 100% 30.17 in 10.0 mi NW 2.3 mph - N/A   Overcast
11:23 PM 30.2 °F - 30.2 °F 100% 30.17 in 10.0 mi NW 2.3 mph - N/A   Overcast
11:28 PM 30.2 °F - 30.2 °F 100% 30.18 in 10.0 mi NW 2.3 mph - N/A   Overcast
11:43 PM 30.2 °F - 30.2 °F 100% 30.18 in 10.0 mi NW 2.3 mph - N/A   Overcast
11:58 PM 29.8 °F - 29.8 °F 100% 30.25 in 9.0 mi NNW 1.2 mph - 0.00 in   Overcast